Wetbulb
54.05 54.76 54.85 54.24 52.98 51.68 49.01 44.52 46.21 50.34 49.71 45.03 43.02 44.65 45.58 45.36 47.33 48.13 46.77 47.96 47.85 48.52 48.21 46.97 47.45 48.12 49.97 50.87 51.68 50.34 52.81 50.02 47.18 48.38 50.08 51.40 55.08 54.57 55.40 50.96 50.96 52.16 52.23 52.48
53.91 54.52 54.65 53.92 52.72 52.02 47.81 43.78 46.64 51.41 49.31 41.22 42.65 43.64 45.57 46.53 45.62 45.95 45.57 45.77 48.57 48.90 47.98 47.70 48.03 47.91 50.43 49.43 51.78 51.18 50.98 49.25 45.75 46.44 48.71 49.82 49.71 53.65 55.10 54.94 55.52 52.28 50.71 51.96
54.20 54.88 54.83 53.94 53.17 52.38 48.53 44.44 44.53 47.47 47.97 44.24 43.74 43.66 44.23 45.55 46.41 45.84 46.44 46.31 47.49 46.70 46.33 48.51 48.56 49.52 51.58 49.89 52.01 60.68 56.35 48.87 47.86 45.26 48.06 50.61 49.35 52.43 54.32 54.32 51.64 52.77 53.49 54.21
54.29 55.09 54.83 54.28 53.24 51.45 48.02 43.99 45.94 46.22 41.58 44.43 44.75 45.55 45.38 43.56 44.48 47.42 47.60 46.56 46.27 46.57 45.24 47.71 48.43 50.20 51.87 51.14 58.48 54.25 52.02 47.78 49.29 49.64 49.29 49.91 49.76 52.56 53.33 53.13 54.02 52.16 53.50 54.85
54.49 55.09 55.24 54.43 53.11 50.39 47.58 43.99 46.60 48.21 46.98 46.36 44.72 43.60 46.02 46.08 47.02 48.45 47.72 45.58 47.13 47.80 46.29 48.81 49.62 51.64 52.49 52.59 53.30 50.86 49.28 48.79 48.81 48.12 48.97 49.23 49.73 53.79 53.62 54.19 53.69 54.74 54.14 54.32
54.19 54.69 55.26 54.55 52.85 48.48 45.99 45.83 46.78 46.46 44.04 46.21 45.80 45.40 47.12 47.94 49.39 51.17 51.96 49.03 47.89 47.11 48.28 50.44 51.14 51.30 51.89 51.73 51.91 50.48 49.81 48.48 48.36 46.63 48.57 49.31 47.94 53.43 54.04 55.10 55.06 54.89 53.00 57.12
54.21 54.55 55.21 54.83 53.41 50.79 48.73 46.08 45.60 46.26 45.57 46.65 47.77 47.50 49.02 49.23 49.90 49.73 52.26 51.59 49.94 51.93 54.43 54.37 51.94 51.66 51.80 52.54 52.86 51.15 49.35 49.59 49.93 46.39 49.44 43.19 53.37 57.71 58.32 55.24 54.47 56.26 57.53 61.76
54.18 54.39 54.36 54.83 54.38 51.20 50.33 48.56 45.67 47.03 46.04 47.63 47.90 48.21 48.64 49.65 50.54 50.21 51.31 53.85 53.30 53.82 53.81 50.31 49.25 50.09 51.44 50.78 50.03 50.46 50.13 50.09 46.32 46.62 46.56 51.55 53.59 55.67 55.25 56.05 53.68 57.04 59.24 59.84
53.91 54.19 53.30 53.86 53.58 52.99 50.68 48.44 48.37 47.11 46.02 46.90 48.02 48.26 48.49 48.42 48.56 49.07 50.67 53.79 53.59 52.41 52.02 49.76 47.42 45.67 49.47 48.44 49.54 49.73 49.85 51.03 50.76 50.13 47.77 45.42 54.70 55.05 55.84 58.27 53.97 57.87 61.23 58.75
54.01 54.23 53.22 53.04 53.31 53.95 52.22 49.75 48.61 47.60 46.28 49.05 48.85 48.58 48.24 49.68 48.21 47.86 48.54 50.03 51.68 52.08 50.03 48.03 46.96 47.14 50.60 48.25 49.20 48.81 48.98 49.94 48.76 50.55 49.55 50.49 52.18 53.32 55.58 53.37 52.95 56.33 59.29 57.98
54.44 54.47 53.55 53.05 53.55 54.43 52.44 49.97 49.75 48.87 47.85 49.08 49.81 50.45 49.03 49.11 48.98 47.07 49.25 49.54 50.19 51.61 48.71 48.66 48.98 49.31 50.58 51.22 50.46 49.67 49.77 49.88 49.82 50.03 49.11 47.54 52.69 54.03 53.96 54.45 55.82 56.15 56.23 56.10
54.50 54.42 53.64 53.26 54.43 54.45 52.29 48.90 51.20 50.68 48.24 49.15 50.35 52.40 53.80 52.52 51.63 49.38 49.75 49.02 49.18 51.46 50.38 50.26 50.03 50.48 51.81 51.31 48.39 51.16 48.73 50.19 49.23 47.70 48.10 51.53 53.24 53.10 55.94 56.69 55.08 55.84 56.42 57.23
54.28 53.54 53.32 54.41 54.61 54.46 53.75 50.82 50.86 49.98 48.31 49.40 49.05 49.19 52.31 54.25 53.67 55.05 48.73 50.84 50.73 51.53 52.00 52.03 51.85 49.27 51.27 49.35 49.17 49.70 49.88 50.37 49.17 49.60 50.18 51.79 53.60 55.41 56.36 56.80 55.87 56.48 56.93 56.77
53.75 54.29 54.65 54.65 54.73 54.71 54.16 51.10 49.90 49.86 48.81 46.09 48.83 53.89 53.48 55.44 54.74 53.55 53.83 52.04 53.38 52.35 53.08 52.78 51.43 49.97 51.08 48.89 49.29 49.97 50.20 51.28 49.73 49.13 51.18 52.60 53.14 54.48 55.42 55.37 56.04 55.41 55.50 55.34
54.22 54.32 54.45 54.57 54.53 54.12 53.75 52.87 52.07 51.61 49.40 46.10 47.62 52.60 52.91 54.00 54.32 53.14 52.84 52.18 52.05 53.31 52.52 51.89 49.39 51.62 51.89 50.54 51.49 48.99 50.74 50.46 50.17 48.52 52.98 52.72 51.54 53.76 55.00 53.20 52.58 53.35 53.31 52.89
54.18 54.26 54.16 54.08 54.12 52.50 51.75 50.39 52.03 52.70 52.89 49.09 45.88 51.59 50.82 52.75 53.45 53.08 53.45 55.08 54.94 54.84 53.44 51.10 52.26 52.11 52.01 48.98 47.27 50.22 51.48 52.17 54.60 51.94 53.96 52.42 51.91 52.31 53.23 52.01 52.17 52.67 52.04 52.16
54.32 54.36 54.32 53.92 53.02 51.38 49.33 48.07 50.97 50.77 53.04 49.19 45.89 47.28 51.14 52.08 51.84 51.64 53.02 54.23 54.96 56.08 54.09 52.44 52.89 52.26 52.73 49.82 47.31 50.39 52.69 53.83 53.45 53.15 52.55 49.58 51.02 49.09 51.68 50.40 51.02 51.35 50.85 50.58
54.63 54.33 54.09 53.54 52.84 52.13 50.62 52.52 51.71 52.07 51.23 49.29 44.59 45.74 49.57 52.09 50.25 48.88 50.96 53.38 54.78 53.75 53.75 53.97 52.11 53.10 52.05 46.56 50.13 52.02 52.53 52.85 52.50 51.96 52.84 50.76 51.02 50.52 50.06 50.50 50.21 48.62 48.44 49.21
53.72 53.59 53.34 53.26 52.84 51.01 52.09 54.02 52.89 53.31 50.77 45.14 45.42 43.08 44.17 51.59 50.12 50.64 50.93 53.37 50.59 53.33 52.23 52.11 53.20 48.79 44.65 49.66 50.78 51.14 52.16 51.00 49.25 50.09 50.27 50.30 48.99 48.51 48.74 48.92 48.78 47.95 47.58 48.72
52.63 53.13 50.88 49.26 52.75 54.36 53.26 51.57 50.37 50.31 49.48 48.25 44.90 45.56 45.22 48.40 49.79 50.04 50.32 51.56 49.86 48.00 49.00 52.61 49.88 46.48 51.70 53.12 53.67 53.86 51.43 50.61 50.28 47.57 46.73 47.55 47.27 47.39 47.54 47.39 48.08 48.13 48.06 48.44
51.30 49.80 49.21 52.72 53.17 51.45 49.84 46.68 46.79 46.98 44.80 47.96 47.49 46.21 44.76 50.03 47.19 47.09 49.05 46.62 49.53 45.68 48.34 48.84 45.75 44.77 49.98 53.47 53.91 53.67 51.78 51.54 51.67 51.33 50.49 49.80 48.98 47.83 47.40 47.47 48.11 48.42 48.47 48.06
49.82 50.33 51.22 52.01 49.35 47.95 44.46 43.36 45.08 44.39 42.93 47.93 47.82 48.70 49.07 49.01 50.07 49.37 49.93 46.09 48.96 44.05 50.76 47.48 44.49 48.58 52.47 52.05 51.26 51.68 52.80 51.93 50.58 50.41 48.91 48.80 48.58 48.60 48.13 47.73 47.69 48.41 48.67 48.94
52.49 49.77 47.09 45.75 44.86 39.13 40.09 37.77 40.58 39.71 46.65 47.95 47.57 47.79 48.93 49.62 50.80 49.48 49.18 46.23 44.87 49.51 46.29 44.57 47.33 51.73 52.49 53.22 52.63 52.27 52.45 51.39 50.54 49.28 49.39 49.01 48.75 48.78 47.95 47.43 48.16 48.44 48.15 48.45
48.20 44.79 34.91 40.57 39.58 41.11 42.72 42.87 42.73 45.91 45.97 46.62 47.40 48.17 47.70 49.70 49.05 48.14 45.81 46.38 47.18 42.71 41.79 43.15 48.68 52.25 53.24 54.11 53.50 50.90 50.78 50.45 50.63 50.30 49.53 48.90 48.77 47.83 48.13 48.10 48.42 47.89 47.06 47.70
45.75 44.75 36.61 41.73 44.80 45.13 44.75 45.08 44.64 46.18 48.61 49.01 48.72 48.88 50.11 49.04 47.63 48.08 46.11 43.94 41.87 43.56 44.10 47.92 51.68 53.51 53.77 53.01 53.14 52.61 51.77 52.19 51.93 51.71 50.50 50.08 49.53 48.48 47.84 48.42 48.59 48.70 48.42 48.08
47.70 46.49 43.71 44.49 43.42 43.77 44.10 45.37 44.96 46.99 48.09 48.82 49.70 47.89 46.05 45.22 46.99 44.82 43.40 42.63 41.69 46.28 49.26 51.19 53.59 54.00 54.74 54.96 55.07 54.66 54.44 54.16 53.60 53.20 52.63 51.53 50.79 49.76 49.53 49.81 49.64 49.59 49.56 49.11
47.16 46.85 47.76 46.76 46.14 45.88 46.80 46.20 46.69 47.82 47.30 46.06 45.84 43.85 43.38 48.11 45.60 44.46 47.58 45.34 48.81 50.54 51.88 53.97 55.06 54.57 54.87 56.19 55.94 55.66 55.33 54.77 54.61 54.02 53.59 52.91 52.65 52.26 51.00 49.99 51.09 50.84 50.96 50.94
MSLP
1019.19 1018.83 1018.40 1017.90 1017.42 1016.70 1016.16 1015.81 1014.72 1014.59 1014.64 1013.82 1013.17 1011.50 1010.67 1009.88 1009.19 1008.82 1008.18 1007.75 1007.10 1006.50 1006.30 1006.06 1006.00 1005.75 1005.51 1005.50 1006.21 1006.89 1007.35 1007.33 1007.26 1007.11 1007.61 1007.64 1007.24 1006.82 1007.16 1007.25 1008.26 1008.45 1007.61 1006.46
1019.06 1018.70 1018.30 1017.91 1017.52 1017.17 1017.09 1016.03 1015.07 1014.53 1014.24 1012.99 1012.34 1011.62 1010.54 1009.85 1009.31 1008.77 1008.30 1007.73 1007.35 1006.95 1006.38 1006.25 1005.98 1005.81 1005.39 1005.63 1005.77 1006.08 1006.90 1006.85 1006.84 1006.86 1007.50 1007.89 1007.29 1007.26 1007.34 1007.36 1007.56 1007.59 1007.00 1006.46
1018.93 1018.57 1018.18 1017.81 1017.47 1017.24 1017.28 1016.40 1014.98 1014.28 1013.76 1013.11 1011.83 1010.95 1010.34 1009.76 1009.36 1008.94 1008.55 1007.97 1007.68 1007.17 1006.64 1006.41 1006.01 1005.67 1005.34 1005.49 1005.46 1005.49 1005.76 1006.33 1005.96 1005.77 1005.99 1006.39 1006.80 1007.01 1007.17 1006.85 1006.92 1006.96 1006.76 1006.54
1018.78 1018.44 1018.09 1017.70 1017.37 1017.07 1017.05 1016.27 1014.81 1014.17 1013.20 1012.46 1011.65 1010.79 1010.17 1009.60 1009.27 1009.19 1008.84 1008.28 1007.80 1007.36 1006.82 1006.28 1005.88 1005.60 1005.42 1005.76 1005.73 1005.79 1005.44 1005.29 1005.86 1005.82 1006.21 1006.35 1006.33 1006.58 1007.00 1007.00 1006.67 1006.60 1006.53 1007.45
1018.65 1018.33 1018.00 1017.67 1017.37 1017.22 1017.02 1016.24 1015.34 1014.44 1013.36 1012.43 1011.71 1010.97 1010.25 1009.70 1009.50 1009.24 1008.72 1008.42 1007.77 1007.52 1006.78 1005.93 1005.45 1005.42 1005.32 1005.28 1006.00 1005.83 1005.81 1005.25 1005.73 1005.92 1006.36 1006.49 1006.59 1006.91 1007.14 1007.54 1007.71 1007.66 1007.92 1008.66
1018.53 1018.23 1017.93 1017.69 1017.44 1017.21 1016.95 1016.81 1016.24 1015.25 1013.53 1012.34 1011.55 1010.71 1010.30 1009.90 1009.67 1009.03 1008.59 1008.34 1008.11 1007.60 1006.87 1006.50 1005.96 1005.91 1005.70 1005.80 1005.69 1005.51 1005.48 1005.53 1005.67 1005.79 1006.41 1006.83 1007.20 1007.15 1007.59 1008.32 1008.80 1008.69 1008.49 1009.25
1018.45 1018.15 1017.92 1017.65 1017.55 1017.44 1017.67 1017.36 1016.75 1015.30 1013.45 1012.42 1011.26 1010.75 1010.51 1010.13 1009.86 1009.44 1008.75 1008.47 1008.36 1007.78 1007.36 1006.69 1006.19 1005.81 1005.57 1005.60 1005.52 1005.58 1005.48 1005.67 1006.03 1006.47 1007.05 1007.45 1008.03 1008.08 1008.34 1008.94 1009.73 1009.85 1010.12 1010.64
1018.32 1018.06 1017.80 1017.59 1017.47 1017.52 1017.56 1017.51 1016.99 1015.67 1013.92 1012.78 1011.70 1011.21 1010.79 1010.52 1010.19 1009.87 1009.27 1008.59 1008.29 1008.16 1007.35 1006.66 1005.92 1005.55 1005.18 1005.51 1005.95 1005.95 1005.71 1005.86 1006.45 1006.78 1007.30 1008.62 1008.97 1009.04 1009.10 1009.03 1010.32 1010.58 1010.37 1011.37
1018.20 1017.95 1017.63 1017.47 1017.39 1017.36 1017.45 1017.42 1017.24 1016.19 1014.72 1013.01 1012.41 1011.69 1011.30 1010.80 1010.44 1010.03 1009.31 1008.88 1008.73 1008.21 1007.28 1006.65 1005.58 1004.91 1005.03 1005.58 1006.27 1006.58 1006.41 1006.28 1006.21 1007.58 1007.75 1008.21 1008.30 1009.23 1009.69 1009.80 1010.54 1011.26 1011.23 1011.66
1017.92 1017.72 1017.50 1017.39 1017.27 1017.13 1017.28 1017.16 1017.22 1016.38 1015.02 1013.51 1012.98 1012.11 1011.68 1011.44 1011.03 1010.47 1009.99 1009.32 1008.82 1008.35 1007.20 1006.53 1005.82 1005.10 1005.23 1005.67 1006.29 1006.97 1007.08 1007.19 1007.14 1007.91 1008.50 1009.30 1010.11 1010.36 1010.56 1010.60 1011.20 1011.66 1012.07 1012.62
1017.75 1017.52 1017.32 1017.17 1017.08 1016.95 1017.08 1016.85 1016.88 1016.48 1015.43 1013.80 1013.25 1012.67 1012.04 1011.70 1011.43 1010.76 1010.43 1010.12 1009.30 1008.54 1007.71 1006.89 1006.18 1005.82 1006.28 1006.76 1008.00 1008.17 1007.96 1008.25 1008.73 1009.48 1010.29 1011.51 1012.01 1011.17 1011.20 1011.45 1012.10 1012.61 1013.35 1014.09
1017.58 1017.33 1017.13 1016.97 1016.81 1016.73 1016.85 1016.69 1016.57 1016.68 1016.04 1014.29 1013.65 1012.79 1012.20 1012.01 1011.67 1011.49 1010.94 1010.44 1009.79 1009.23 1008.46 1007.98 1007.50 1007.25 1007.34 1007.71 1008.55 1009.53 1009.97 1010.20 1010.53 1012.07 1012.37 1013.33 1013.15 1012.75 1012.62 1012.75 1013.33 1014.22 1014.69 1015.34
1017.47 1017.17 1016.96 1016.78 1016.64 1016.56 1016.62 1016.51 1016.58 1016.55 1015.66 1013.98 1013.15 1011.73 1011.50 1011.57 1011.57 1011.42 1011.17 1010.55 1010.23 1009.86 1009.91 1008.98 1008.62 1008.61 1008.94 1008.78 1009.81 1010.42 1011.52 1011.96 1011.92 1012.76 1014.58 1014.56 1014.70 1014.71 1014.55 1014.66 1015.07 1015.89 1016.34 1016.63
1017.23 1016.99 1016.76 1016.56 1016.43 1016.36 1016.38 1016.40 1016.43 1016.26 1015.57 1014.19 1012.08 1011.47 1011.22 1011.16 1011.18 1011.14 1010.92 1010.67 1010.63 1010.57 1010.25 1009.59 1009.41 1009.52 1010.21 1010.56 1011.05 1011.39 1012.78 1012.78 1013.27 1014.47 1015.40 1015.64 1016.18 1016.20 1016.28 1016.46 1016.80 1017.20 1017.70 1017.89
1016.92 1016.73 1016.55 1016.34 1016.19 1016.14 1016.14 1016.15 1015.99 1015.95 1015.80 1014.39 1012.45 1011.42 1011.14 1010.97 1010.80 1010.48 1010.68 1010.79 1010.83 1010.50 1010.22 1010.05 1010.58 1011.00 1011.14 1011.91 1011.86 1012.78 1013.69 1013.42 1013.31 1013.92 1015.11 1015.71 1017.23 1017.57 1017.63 1017.74 1018.24 1018.57 1018.74 1019.15
1016.58 1016.36 1016.20 1016.07 1015.97 1015.95 1015.83 1015.70 1015.68 1015.70 1015.62 1014.77 1013.01 1011.85 1011.19 1010.92 1010.58 1010.27 1010.49 1010.73 1010.95 1010.78 1010.57 1011.20 1011.65 1012.13 1011.99 1012.10 1013.03 1014.23 1014.15 1014.24 1014.15 1015.17 1016.12 1016.92 1017.89 1018.43 1018.69 1018.63 1019.06 1019.36 1019.47 1019.89
1016.18 1015.93 1015.81 1015.74 1015.71 1015.79 1015.65 1015.69 1015.53 1015.64 1015.65 1014.81 1013.41 1011.90 1011.33 1011.08 1010.63 1010.50 1010.59 1010.86 1011.07 1011.15 1011.54 1011.94 1012.18 1012.46 1012.31 1013.13 1013.96 1015.05 1014.98 1015.15 1015.50 1016.08 1016.69 1017.85 1018.46 1019.23 1019.50 1019.53 1019.81 1019.71 1020.02 1020.44
1015.68 1015.44 1015.41 1015.44 1015.48 1015.62 1015.30 1015.26 1015.31 1015.47 1015.23 1014.96 1014.11 1012.66 1011.74 1011.79 1011.04 1010.82 1011.04 1010.82 1011.33 1011.85 1012.34 1012.75 1012.88 1013.04 1013.26 1014.23 1015.31 1015.79 1016.07 1016.33 1016.63 1016.91 1017.04 1018.02 1019.09 1019.65 1019.97 1020.10 1020.07 1020.32 1020.77 1020.50
1015.30 1015.08 1015.07 1015.25 1015.22 1015.04 1014.95 1015.05 1015.26 1015.26 1015.43 1014.81 1014.65 1014.12 1013.04 1012.51 1011.93 1011.57 1011.24 1011.19 1011.95 1012.79 1012.94 1013.48 1013.59 1014.19 1014.52 1015.10 1015.81 1016.30 1016.60 1016.76 1017.49 1017.93 1018.36 1018.88 1019.34 1019.94 1020.28 1020.53 1020.75 1020.92 1021.02 1020.80
1015.03 1014.97 1015.08 1015.04 1015.08 1014.99 1014.86 1014.87 1014.97 1015.07 1015.12 1015.14 1015.12 1015.15 1014.16 1013.81 1012.44 1011.83 1011.55 1011.48 1012.09 1012.69 1013.90 1013.93 1014.27 1015.50 1015.90 1016.15 1016.44 1016.81 1017.14 1017.48 1017.87 1018.08 1018.94 1019.38 1019.87 1020.46 1020.88 1021.11 1021.36 1021.41 1021.59 1021.76
1014.97 1015.13 1015.35 1015.12 1014.84 1014.74 1014.82 1014.87 1014.99 1015.29 1015.25 1015.36 1015.41 1015.27 1014.85 1014.37 1013.69 1012.89 1012.39 1011.97 1012.01 1012.36 1013.62 1013.62 1014.88 1015.99 1016.22 1016.69 1017.02 1017.42 1017.78 1018.08 1018.22 1018.50 1019.13 1019.81 1020.30 1020.87 1021.33 1021.75 1021.96 1022.09 1022.29 1022.37
1015.64 1015.42 1015.51 1015.25 1015.07 1015.19 1015.22 1015.37 1015.51 1015.50 1015.55 1015.45 1015.26 1015.17 1015.10 1014.74 1014.36 1013.13 1012.50 1012.15 1012.14 1012.62 1013.54 1013.58 1014.43 1015.37 1016.07 1016.87 1017.47 1017.89 1018.16 1018.57 1019.08 1019.55 1020.07 1020.63 1021.02 1021.53 1021.86 1022.09 1022.27 1022.41 1022.54 1022.66
1015.59 1015.56 1015.50 1015.70 1015.93 1015.81 1015.60 1015.78 1015.96 1016.08 1015.78 1015.69 1015.52 1015.08 1015.13 1014.72 1014.31 1013.74 1012.89 1012.38 1013.09 1013.56 1013.42 1013.72 1014.39 1015.23 1016.28 1017.03 1017.39 1018.07 1018.57 1019.05 1019.55 1020.21 1020.66 1021.08 1021.50 1021.90 1022.19 1022.48 1022.70 1022.72 1022.70 1022.80
1015.40 1015.74 1016.24 1016.42 1016.22 1016.30 1016.22 1016.20 1016.36 1016.33 1016.10 1015.82 1015.55 1015.18 1014.95 1014.63 1013.97 1013.68 1013.19 1014.00 1013.61 1013.50 1013.56 1013.84 1014.55 1015.31 1016.20 1016.92 1017.71 1018.08 1018.69 1019.34 1019.79 1020.19 1021.01 1021.50 1021.85 1022.22 1022.45 1022.65 1022.89 1022.81 1022.88 1023.08
1015.58 1015.93 1016.37 1016.48 1016.52 1016.48 1016.38 1016.51 1016.37 1016.20 1016.06 1015.64 1015.37 1015.07 1014.78 1014.19 1013.64 1014.07 1014.12 1013.95 1013.64 1013.48 1013.26 1013.82 1014.65 1015.53 1016.44 1016.91 1017.51 1018.10 1018.90 1019.40 1019.74 1020.30 1021.02 1021.50 1021.91 1022.16 1022.51 1022.82 1022.91 1022.91 1023.06 1023.11
1015.67 1015.96 1016.31 1016.59 1016.54 1016.10 1016.19 1016.19 1016.05 1016.09 1015.70 1015.69 1015.38 1014.63 1014.18 1014.29 1014.09 1013.74 1013.93 1013.76 1013.49 1013.50 1013.82 1014.30 1015.10 1015.76 1016.25 1016.76 1017.36 1017.90 1018.46 1019.05 1019.66 1020.32 1020.83 1021.41 1021.82 1022.07 1022.31 1022.66 1022.73 1022.80 1022.84 1022.87
1015.60 1015.96 1016.36 1016.38 1016.35 1016.23 1016.08 1016.07 1015.86 1016.07 1015.89 1015.23 1015.07 1014.40 1014.64 1014.57 1014.16 1014.09 1014.24 1013.98 1014.10 1014.04 1014.43 1014.97 1015.42 1015.85 1016.43 1016.98 1017.55 1018.12 1018.63 1019.15 1019.62 1020.24 1020.85 1021.26 1021.63 1021.91 1022.13 1022.23 1022.35 1022.44 1022.55 1022.63
Wind_Speed
13 13 14 14 14 18 5 2 3 4 2 4 1 7 6 3 2 3 2 2 2 2 4 8 8 13 6 13 17 13 9 4 6 6 4 3 1 7 10 7 7 1 3 3
13 13 13 12 11 10 4 2 1 2 3 5 4 1 5 3 4 2 1 1 2 1 2 4 6 5 2 11 16 18 11 7 4 5 5 4 7 6 3 4 3 7 5 4
13 13 12 12 10 8 1 2 3 2 0 1 2 7 6 11 2 3 3 3 1 1 1 0 2 4 3 13 12 4 17 7 11 7 3 5 6 8 9 10 6 7 7 10
13 13 13 12 10 5 1 1 1 3 6 5 3 3 6 8 9 3 3 3 8 5 4 2 4 5 3 4 6 8 14 15 12 10 5 5 3 9 12 13 9 10 9 8
13 13 13 9 10 3 1 2 2 1 1 2 7 1 5 7 5 4 5 5 3 11 11 9 6 2 0 2 4 8 6 8 10 12 9 8 6 4 10 9 4 6 3 4
11 12 12 7 9 1 2 1 1 3 2 4 6 5 5 5 4 7 10 7 6 6 15 11 10 8 7 5 2 8 8 7 8 7 7 9 6 6 7 4 2 2 5 6
11 11 10 8 5 5 0 1 2 3 2 3 4 6 3 6 8 4 2 8 7 1 6 5 4 4 7 5 4 5 7 6 0 5 10 7 6 2 5 10 4 2 6 13
11 11 10 9 7 4 2 1 2 2 1 1 2 3 2 4 3 5 8 8 1 4 3 3 4 3 4 3 3 7 4 6 5 6 4 5 4 6 7 6 3 2 15 19
9 11 10 9 8 2 1 2 2 2 3 3 2 1 1 1 1 2 4 1 4 3 4 4 6 8 6 6 5 4 7 2 3 5 6 9 5 9 3 4 4 5 17 21
9 10 9 9 9 4 1 2 3 2 3 1 2 0 1 0 0 2 3 5 1 1 5 6 5 7 3 8 9 5 5 3 6 5 3 2 3 4 4 8 6 10 11 7
10 11 9 9 9 5 2 2 4 2 2 5 4 2 1 0 1 3 4 3 3 1 6 5 3 3 4 5 3 1 2 4 4 4 3 5 10 1 6 11 15 16 16 16
11 11 9 8 7 4 3 2 2 3 3 4 3 7 11 10 11 4 2 4 1 2 1 1 2 2 2 4 5 3 2 4 4 5 5 5 5 9 11 15 17 15 15 13
12 10 9 8 6 3 4 2 1 2 3 4 3 5 3 3 11 9 3 2 3 2 2 1 2 4 2 4 4 5 4 2 5 5 7 11 13 15 16 17 18 15 13 12
12 11 10 7 5 4 4 2 1 2 2 3 2 3 2 1 4 9 12 3 1 2 2 1 2 3 3 3 5 3 3 1 10 14 11 14 13 13 14 16 15 15 13 12
12 12 11 8 6 4 2 3 3 2 3 3 5 8 0 5 6 8 9 8 5 2 2 2 3 2 3 2 3 4 3 6 3 5 11 10 9 9 11 14 13 11 11 10
11 11 10 8 6 2 2 2 3 3 2 3 3 4 2 5 5 6 6 4 2 1 2 3 3 3 1 3 4 5 4 4 11 9 12 16 14 11 11 13 12 11 12 10
12 10 9 8 4 1 2 2 3 5 1 2 4 3 3 6 2 2 2 3 3 2 3 3 2 3 3 3 4 7 11 16 19 20 17 12 6 8 10 12 11 12 13 11
13 11 8 7 5 5 1 1 3 5 1 0 2 3 1 7 4 1 3 3 2 6 3 2 3 2 2 5 12 13 13 13 12 12 14 16 14 12 11 10 10 13 10 10
11 5 1 2 0 0 1 1 5 1 1 1 1 3 1 6 3 2 1 1 4 1 3 3 1 5 4 12 13 13 8 6 15 15 15 15 15 14 12 12 11 11 11 12
2 1 1 1 1 6 2 2 0 1 3 2 2 1 2 4 3 2 1 3 2 3 3 1 4 4 8 10 12 7 15 16 16 18 14 13 14 12 12 12 10 10 9 9
1 1 0 2 5 0 2 2 2 2 2 2 2 1 3 2 3 3 3 1 1 3 3 1 4 3 4 8 8 11 12 12 6 12 13 13 13 12 11 10 9 9 9 9
0 1 0 2 3 3 3 2 1 2 2 2 3 2 2 2 2 3 4 2 0 4 3 3 5 7 10 9 11 10 11 13 14 14 15 13 13 11 10 9 9 8 8 7
2 1 3 3 2 3 2 2 3 3 3 3 3 1 2 2 1 3 1 4 4 2 1 3 3 11 11 10 10 11 13 14 15 14 12 12 12 10 10 9 8 9 10 8
3 2 5 2 2 2 1 0 0 2 2 4 1 2 2 1 1 3 2 2 2 2 4 4 7 13 13 13 12 14 14 13 14 14 13 12 11 10 10 9 8 9 9 8
3 1 2 1 1 4 2 1 3 2 3 2 2 2 1 1 3 2 3 4 2 3 2 4 9 12 12 13 14 14 14 13 13 13 12 12 11 9 9 7 7 7 7 7
2 2 1 1 2 2 1 1 2 1 1 2 2 1 3 3 1 1 2 2 4 1 3 7 10 11 11 12 12 12 13 12 12 11 11 11 10 10 9 8 5 5 4 4
2 2 0 1 2 3 2 2 2 1 2 1 1 1 4 1 1 2 1 2 2 3 7 8 10 11 11 11 11 11 11 10 10 10 10 10 9 7 7 7 6 5 4 4
Wind_Direction
332 334 334 334 339 343 28 323 193 37 212 160 286 205 197 183 223 202 264 257 259 194 154 175 196 201 235 179 157 183 196 206 221 205 73 18 339 212 198 228 180 54 313 269
337 334 334 335 343 16 336 7 36 93 293 189 195 193 217 244 191 211 188 268 254 13 131 194 215 194 206 159 174 171 170 208 185 206 183 134 220 193 144 119 130 187 209 245
336 333 334 333 336 343 157 247 150 133 159 358 207 171 187 211 196 237 242 286 165 251 287 200 138 231 188 186 196 146 167 170 218 217 199 167 181 188 195 213 203 180 227 261
337 335 332 333 345 0 209 282 122 351 178 209 200 200 178 186 212 209 211 217 232 208 241 224 215 222 159 130 184 161 190 211 210 225 198 172 195 178 183 203 217 217 236 221
339 341 335 351 356 115 301 314 303 145 166 171 192 247 190 191 181 210 197 219 96 211 228 226 199 176 154 122 171 171 203 193 192 230 217 212 216 192 208 219 230 249 124 146
341 341 345 359 6 88 354 20 245 282 105 164 187 194 186 199 180 218 234 215 237 226 245 249 283 288 281 278 258 177 187 171 167 212 184 176 227 210 181 146 136 285 211 114
341 344 344 1 26 64 330 326 286 271 161 213 179 157 185 214 224 266 287 221 227 234 315 281 255 240 246 229 217 221 163 189 292 118 156 194 43 173 160 118 60 292 147 136
338 333 339 347 5 131 7 233 263 281 257 295 170 174 216 286 256 238 253 250 233 330 249 245 209 182 190 148 67 202 191 160 136 178 174 106 189 196 185 193 87 319 159 137
327 326 325 329 333 123 35 263 235 263 285 190 4 266 346 336 319 244 243 299 326 214 206 187 212 184 181 183 151 85 126 115 174 168 160 192 106 136 62 157 177 140 152 147
329 325 329 325 317 341 192 278 214 266 280 263 233 283 4 37 185 275 305 346 206 325 179 200 208 198 197 166 174 156 142 127 190 161 144 133 73 309 289 198 119 132 142 146
338 322 327 321 317 329 167 287 202 296 296 277 223 257 223 359 236 336 8 244 164 160 199 210 175 199 134 105 68 97 148 168 143 135 159 188 357 223 236 107 103 109 106 106
325 326 325 321 321 327 146 267 170 196 245 299 304 273 270 264 262 290 251 330 305 342 278 200 126 149 142 147 137 86 140 19 110 349 59 20 40 85 108 106 101 97 96 95
318 323 322 321 318 298 208 286 148 208 277 269 273 243 145 207 228 227 258 189 312 245 328 343 81 104 282 131 111 117 94 20 96 166 82 85 86 84 82 89 93 91 86 90
316 315 315 317 310 288 202 254 152 246 287 289 297 335 270 247 226 216 222 297 314 315 258 105 69 94 347 80 96 78 24 341 122 98 122 105 71 75 87 88 91 89 79 73
315 314 312 311 307 304 247 230 218 247 299 309 296 305 228 297 289 226 207 226 261 232 163 55 68 85 148 68 126 81 344 143 165 146 147 93 100 85 86 87 83 80 88 79
306 309 310 309 311 335 236 225 174 202 238 277 298 356 289 345 341 97 137 144 126 97 67 82 95 54 287 98 79 29 40 149 136 121 109 104 100 82 76 90 93 88 81 71
301 297 296 291 277 206 255 359 21 169 225 258 296 324 32 333 333 93 102 72 78 44 98 64 60 51 19 65 89 97 101 108 111 116 119 88 91 99 93 87 85 82 80 68
301 294 294 296 254 248 234 62 82 162 154 295 312 293 324 11 1 57 6 85 42 33 75 77 41 63 38 80 120 122 109 101 89 83 90 107 116 107 95 89 87 74 60 64
312 296 178 148 320 134 55 77 124 131 261 72 46 358 19 351 25 291 141 46 78 12 67 56 42 16 42 142 137 133 123 106 121 106 105 109 100 96 89 87 78 78 60 50
315 184 240 7 39 312 295 141 4 55 8 26 66 263 311 328 341 59 127 54 111 88 70 220 60 56 103 131 131 113 126 129 131 119 116 112 101 98 91 80 74 68 60 51
37 47 327 313 313 311 32 38 26 344 47 21 20 347 330 22 357 8 25 86 90 108 103 112 116 140 164 160 124 136 135 136 105 107 109 110 116 114 106 93 81 75 66 52
26 75 164 278 35 10 9 25 1 12 11 358 339 355 325 319 302 350 5 57 188 97 137 119 130 149 153 155 142 141 140 127 115 115 118 118 111 108 101 92 84 77 71 60
165 62 51 9 345 72 11 34 43 313 342 26 341 310 342 303 263 190 290 61 56 155 43 97 110 147 152 155 143 140 137 129 125 125 119 114 112 110 107 102 93 87 74 59
62 54 15 30 23 16 306 217 190 306 259 301 200 269 322 337 47 4 48 62 185 119 174 184 151 156 153 153 157 145 147 142 142 138 139 138 134 123 112 105 103 93 81 72
87 104 65 47 310 251 259 293 281 215 268 279 179 210 261 7 117 64 150 170 163 238 192 149 152 154 157 153 157 149 155 159 154 152 157 152 144 138 131 127 117 107 105 91
98 95 114 128 280 298 284 234 272 147 273 280 245 232 132 58 27 143 75 169 213 143 125 132 144 148 147 147 155 161 165 165 162 166 162 160 163 165 159 161 167 159 141 120
81 27 96 210 263 255 271 222 244 147 218 268 231 77 53 133 94 121 357 290 10 140 129 134 143 145 147 148 152 159 161 167 169 167 173 174 174 169 171 191 202 214 221 240